Weather Roundup
Issued by NWS Chicago, IL

Home | Current Version | Previous Version | Graphics & Text | Print | Product List | Glossary On
Versions: 1 2 3 4 5 6 7 8 9 10 11 12 13 14 15 16 17 18 19 20 21 22 23 24 25 26 27 28 29 30 31 32 33 34 35 36 37 38 39 40 41 42 43 44 45 46 47 48 49 50
000
NZUS59 KLOT 190306
HRRLOT

CHICAGO AREA WEATHER ROUNDUP
NATIONAL WEATHER SERVICE CHICAGO/ROMEOVILLE IL
1000 PM CDT FRI APR 18 2014

NOTE: "FAIR" INDICATES FEW OR NO CLOUDS BELOW 12,000 FEET WITH NO
SIGNIFICANT WEATHER AND/OR OBSTRUCTIONS TO VISIBILITY.

* THESE STATIONS ARE NOT UNDER NWS QUALITY CONTROL. THEY ALSO MAY NOT
  REPORT WEATHER SUCH AS PRECIPITATION OR FOG.

ILZ005-006-012>014-019>023-190400-
NORTHEAST ILLINOIS

CITY           SKY/WX    TMP DP  RH WIND       PRES   REMARKS
OHARE          CLEAR     38  26  62 NE9       30.38R
MIDWAY         CLEAR     40  30  67 NE9       30.38R
AURORA         CLEAR     39  28  64 NE20      30.35R
LANSING*       CLEAR     38  29  71 NE9G16    30.37S
JOLIET*        CLEAR     39  30  69 NE10G18   30.36S
WAUKEGAN       CLEAR     35  26  69 N9        30.38R WCI  28
DUPAGE AIRPORT CLEAR     37  28  70 NE9       30.36R
WHEELING       CLEAR     38  28  67 NE9       30.39R
KANKAKEE*      CLEAR     38  32  78 NE15      30.34S
MORRIS*        CLEAR     41  30  64 E7        30.35R
LEWIS AIRPORT* CLEAR     39  29  68 NE16      30.35S
NORTHERLY IS     N/A     38  31  76 N9          N/A
$$

WIZ051-052-058>065-066-070>072-190400-
SOUTHEAST WISCONSIN

CITY           SKY/WX    TMP DP  RH WIND       PRES   REMARKS
MILWAUKEE      CLEAR     34  28  79 NE6       30.39S WCI  29
KENOSHA*       CLEAR     34  27  75 NE7       30.38R WCI  28
RACINE*        CLEAR     34  28  79 NE9       30.39R WCI  27
BURLINGTON     CLEAR     32  27  80 E5        30.37F WCI  27
WAUKESHA       CLEAR     32  27  80 E5        30.38F WCI  27
WEST BEND      CLEAR     32  27  80 NE6       30.38F WCI  26
$$

INZ001>003-010>013-019-020-190400-
NORTHWEST INDIANA

CITY           SKY/WX    TMP DP  RH WIND       PRES   REMARKS
GARY*          CLEAR     39  30  71 N10       30.38S
MICHIGAN CITY* NOT AVBL
RENSSELAER*    NOT AVBL
VALPARAISO     CLEAR     35  27  72 N7        30.35S WCI  29
$$

LMZ740>746-190400-
SOUTHERN LAKE MICHIGAN

STATION/POSITION TIME  SKY/WX   TEMP WIND        PRES    VSBY
                                AIR  DIR/SP/G
                 (UTC)          (F)  (DEG/KT/KT) (MB)    (MI)
HARRISON CRIB    0300            37   10/ 11/ 13   N/A
BURNHAM HARBOR   0300            38   20/ 10/ 15   N/A
CALUMET HARBOR   0300            38   10/  9/ 12 1029.1F
BURNS HARBOR     NOT AVBL
MICHIGAN CITY    0300            38   20/ 13/ 16   N/A
$$

ABBREVIATIONS USED IN REMARKS
   TC - TEMPERATURE IN CELSIUS
  WCI - WIND CHILL INDEX
   HX - HEAT INDEX
  VSB - VISIBILITY
$$


USA.gov is the U.S. government's official web portal to all federal, state and local government web resources and services.